When you browse on this site, cookies collect data to enhance your experience and personalize the content and advertising you see.
Visit our Privacy Policy to learn more. By continuing to use the site, you agree to this use of cookies and data.
  • In France
  • List of Countries
  • For 7 days
  • Water Temperature
  • Weather Map
  • Weather Widgets
  • user-avatar
    Login

    Hourly Weather Moluprei

    Today, 1 June, Monday

    Time Temperature Precipitation Wind Pressure Humidity
    00:00 +27°C° 0.2 mm 1 mps 757 mmHg 87%
    01:00 +28°C° 0 mm 1 mps 757 mmHg 83%
    02:00 +28°C° 0 mm 1 mps 757 mmHg 84%
    03:00 +28°C° 0 mm 1 mps 756 mmHg 86%
    04:00 +27°C° 0 mm 1 mps 756 mmHg 87%
    05:00 +28°C° 0 mm 1 mps 756 mmHg 87%
    06:00 +26°C° 0 mm 0 mps 757 mmHg 86%
    07:00 +26°C° 0 mm 0 mps 757 mmHg 81%
    08:00 +27°C° 0 mm 0 mps 757 mmHg 79%
    09:00 +27°C° 0 mm 0 mps 757 mmHg 77%
    10:00 +28°C° 0 mm 0 mps 758 mmHg 75%
    11:00 +30°C° 0 mm 1 mps 757 mmHg 74%
    12:00 +31°C° 0 mm 1 mps 757 mmHg 73%
    13:00 +31°C° 0 mm 1 mps 757 mmHg 72%
    14:00 +31°C° 0 mm 1 mps 756 mmHg 72%
    15:00 +31°C° 0 mm 1 mps 755 mmHg 72%
    16:00 +31°C° 0 mm 1 mps 755 mmHg 72%
    17:00 +31°C° 0 mm 1 mps 755 mmHg 75%
    18:00 +30°C° 0 mm 1 mps 755 mmHg 78%
    19:00 +30°C° 0 mm 1 mps 756 mmHg 80%
    20:00 +29°C° 0 mm 1 mps 756 mmHg 81%
    21:00 +29°C° 0 mm 1 mps 756 mmHg 81%
    22:00 +29°C° 0 mm 1 mps 756 mmHg 82%
    23:00 +29°C° 0 mm 1 mps 756 mmHg 84%

    Tomorrow, 2 June, Tuesday

    Time Temperature Precipitation Wind Pressure Humidity
    00:00 +27°C° 0 mm 0 mps 756 mmHg 85%
    01:00 +26°C° 0 mm 0 mps 756 mmHg 87%
    02:00 +28°C° 0 mm 1 mps 756 mmHg 88%
    03:00 +28°C° 0 mm 1 mps 755 mmHg 89%
    04:00 +28°C° 0 mm 1 mps 755 mmHg 90%
    05:00 +28°C° 0 mm 1 mps 755 mmHg 89%
    06:00 +28°C° 0 mm 1 mps 756 mmHg 87%
    07:00 +29°C° 0 mm 1 mps 756 mmHg 86%
    08:00 +30°C° 0 mm 1 mps 756 mmHg 80%
    09:00 +31°C° 0 mm 1 mps 756 mmHg 75%
    10:00 +32°C° 0 mm 2 mps 756 mmHg 69%
    11:00 +35°C° 0 mm 2 mps 756 mmHg 63%
    12:00 +36°C° 0 mm 3 mps 756 mmHg 57%
    13:00 +38°C° 0 mm 4 mps 756 mmHg 50%
    14:00 +37°C° 0 mm 4 mps 755 mmHg 52%
    15:00 +37°C° 0 mm 5 mps 754 mmHg 53%
    16:00 +36°C° 0 mm 5 mps 754 mmHg 55%
    17:00 +35°C° 0 mm 5 mps 754 mmHg 61%
    18:00 +33°C° 0 mm 4 mps 754 mmHg 67%
    19:00 +30°C° 0 mm 3 mps 754 mmHg 74%
    20:00 +30°C° 0 mm 3 mps 755 mmHg 75%
    21:00 +30°C° 0 mm 3 mps 756 mmHg 75%
    22:00 +29°C° 0 mm 3 mps 756 mmHg 76%
    23:00 +29°C° 0 mm 3 mps 756 mmHg 78%

    Day after tomorrow, 3 June, Wednesday

    Time Temperature Precipitation Wind Pressure Humidity
    00:00 +29°C° 0 mm 2 mps 756 mmHg 80%
    01:00 +29°C° 0 mm 2 mps 755 mmHg 82%
    02:00 +28°C° 0 mm 2 mps 755 mmHg 83%
    03:00 +28°C° 0 mm 1 mps 754 mmHg 84%
    04:00 +28°C° 0 mm 1 mps 754 mmHg 85%
    05:00 +28°C° 0 mm 1 mps 755 mmHg 84%
    06:00 +28°C° 0 mm 1 mps 755 mmHg 83%
    07:00 +29°C° 0 mm 1 mps 756 mmHg 83%
    08:00 +30°C° 0 mm 1 mps 756 mmHg 75%
    09:00 +32°C° 0 mm 2 mps 756 mmHg 67%
    10:00 +35°C° 0 mm 2 mps 756 mmHg 59%
    11:00 +36°C° 0 mm 2 mps 755 mmHg 55%
    12:00 +37°C° 0 mm 3 mps 755 mmHg 50%
    13:00 +39°C° 0 mm 3 mps 754 mmHg 46%
    14:00 +38°C° 0 mm 3 mps 754 mmHg 48%
    15:00 +37°C° 0 mm 3 mps 753 mmHg 50%
    16:00 +37°C° 0 mm 3 mps 752 mmHg 53%
    17:00 +35°C° 0.3 mm 3 mps 753 mmHg 59%
    18:00 +34°C° 0.3 mm 3 mps 753 mmHg 66%
    19:00 +31°C° 0.3 mm 3 mps 753 mmHg 73%
    20:00 +30°C° 0 mm 3 mps 754 mmHg 75%
    21:00 +30°C° 0 mm 3 mps 754 mmHg 78%
    22:00 +29°C° 0 mm 3 mps 755 mmHg 80%
    23:00 +29°C° 0 mm 2 mps 755 mmHg 81%

    4 June, Thursday

    Time Temperature Precipitation Wind Pressure Humidity
    00:00 +29°C° 0 mm 2 mps 754 mmHg 82%
    01:00 +28°C° 0 mm 2 mps 754 mmHg 83%
    02:00 +28°C° 0 mm 1 mps 754 mmHg 84%
    03:00 +28°C° 0 mm 1 mps 754 mmHg 85%
    04:00 +28°C° 0 mm 1 mps 754 mmHg 86%
    05:00 +28°C° 0 mm 1 mps 754 mmHg 84%
    06:00 +29°C° 0 mm 1 mps 754 mmHg 83%
    07:00 +29°C° 0 mm 1 mps 755 mmHg 81%
    08:00 +31°C° 0 mm 2 mps 755 mmHg 74%
    09:00 +34°C° 0 mm 3 mps 755 mmHg 66%
    10:00 +35°C° 0 mm 3 mps 755 mmHg 58%
    11:00 +36°C° 0 mm 4 mps 755 mmHg 55%
    12:00 +37°C° 0 mm 4 mps 754 mmHg 51%
    13:00 +38°C° 0 mm 4 mps 754 mmHg 48%
    14:00 +38°C° 0 mm 4 mps 753 mmHg 49%
    15:00 +37°C° 0 mm 4 mps 753 mmHg 51%
    16:00 +37°C° 0 mm 4 mps 752 mmHg 52%
    17:00 +35°C° 0.1 mm 4 mps 753 mmHg 59%
    18:00 +33°C° 0.1 mm 3 mps 753 mmHg 66%
    19:00 +31°C° 0.1 mm 3 mps 753 mmHg 72%
    20:00 +30°C° 0 mm 3 mps 754 mmHg 74%
    21:00 +30°C° 0 mm 3 mps 754 mmHg 76%
    22:00 +29°C° 0 mm 3 mps 755 mmHg 77%
    23:00 +29°C° 0 mm 3 mps 755 mmHg 79%

    5 June, Friday

    Time Temperature Precipitation Wind Pressure Humidity
    00:00 +28°C° 0 mm 2 mps 754 mmHg 80%
    01:00 +28°C° 0 mm 2 mps 754 mmHg 82%
    02:00 +28°C° 0 mm 2 mps 754 mmHg 82%
    03:00 +28°C° 0 mm 2 mps 754 mmHg 83%
    04:00 +28°C° 0 mm 2 mps 753 mmHg 84%
    05:00 +28°C° 0 mm 2 mps 754 mmHg 83%
    06:00 +29°C° 0 mm 2 mps 754 mmHg 81%
    07:00 +29°C° 0 mm 2 mps 754 mmHg 80%
    08:00 +31°C° 0 mm 3 mps 755 mmHg 73%
    09:00 +34°C° 0 mm 3 mps 755 mmHg 66%
    10:00 +36°C° 0 mm 4 mps 755 mmHg 59%
    11:00 +36°C° 0.3 mm 4 mps 755 mmHg 56%
    12:00 +37°C° 0.3 mm 4 mps 754 mmHg 53%
    13:00 +38°C° 0.3 mm 4 mps 754 mmHg 50%
    14:00 +37°C° 0.2 mm 4 mps 753 mmHg 51%
    15:00 +37°C° 0.2 mm 4 mps 753 mmHg 53%
    16:00 +37°C° 0.2 mm 4 mps 752 mmHg 54%
    17:00 +35°C° 0.1 mm 4 mps 752 mmHg 59%
    18:00 +33°C° 0.1 mm 4 mps 753 mmHg 65%
    19:00 +31°C° 0.1 mm 3 mps 753 mmHg 70%
    20:00 +30°C° 0 mm 3 mps 754 mmHg 71%
    21:00 +30°C° 0 mm 3 mps 754 mmHg 71%
    22:00 +29°C° 0 mm 3 mps 755 mmHg 72%
    23:00 +29°C° 0 mm 3 mps 754 mmHg 74%

    6 June, Saturday

    Time Temperature Precipitation Wind Pressure Humidity
    00:00 +29°C° 0 mm 2 mps 754 mmHg 76%
    01:00 +28°C° 0 mm 2 mps 753 mmHg 78%
    02:00 +28°C° 0 mm 2 mps 753 mmHg 80%
    03:00 +28°C° 0 mm 2 mps 753 mmHg 82%
    04:00 +28°C° 0 mm 1 mps 753 mmHg 84%
    05:00 +28°C° 0 mm 2 mps 753 mmHg 82%
    06:00 +29°C° 0 mm 2 mps 753 mmHg 81%
    07:00 +29°C° 0 mm 2 mps 753 mmHg 80%
    08:00 +31°C° 0 mm 3 mps 754 mmHg 72%
    09:00 +34°C° 0 mm 3 mps 754 mmHg 65%
    10:00 +36°C° 0 mm 4 mps 754 mmHg 57%
    11:00 +37°C° 0.2 mm 4 mps 754 mmHg 54%
    12:00 +37°C° 0.2 mm 4 mps 753 mmHg 51%
    13:00 +38°C° 0.2 mm 4 mps 753 mmHg 48%
    14:00 +37°C° 0.5 mm 4 mps 753 mmHg 51%
    15:00 +37°C° 0.5 mm 4 mps 752 mmHg 55%
    16:00 +36°C° 0.5 mm 5 mps 752 mmHg 58%
    17:00 +34°C° 0 mm 4 mps 752 mmHg 63%
    18:00 +33°C° 0 mm 4 mps 752 mmHg 68%
    19:00 +32°C° 0 mm 4 mps 752 mmHg 72%
    20:00 +30°C° 0 mm 4 mps 753 mmHg 75%
    21:00 +30°C° 0 mm 3 mps 754 mmHg 77%
    22:00 +29°C° 0 mm 3 mps 754 mmHg 79%
    23:00 +29°C° 0 mm 3 mps 754 mmHg 79%
    Show more